Location: Buckeye Ditch
(40.9104°N, 122.9517°W)
Time: 13:09:57
(UTC+00:00)

Transit 2A Rocket - Pass Details

Date: 23 May 2025
Orbit: 590 x 896 km, 66.7° (Epoch: 15 June)

Event Time Altitude Azimuth Distance (km) Brightness Sun altitude
Rises 04:21:25 0° 319° (NW) 2,964 10.0 -9.0°
Reaches altitude 10° 04:23:50 10° 309° (NW) 2,092 9.0 -9.4°
Maximum altitude 04:27:59 31° 248° (WSW) 1,219 6.4 -10.0°
Drops below altitude 10° 04:32:27 10° 187° (S) 2,250 7.1 -10.6°
Enters shadow 04:34:40 - 179° (S) 3,046 7.7 -11.0°
